sat.trackr.live / text

‹ back to catalog

ONEWEB-0055

NORAD 45443 · 2020-020V

PAYLOAD ACTIVE UNKNOWN

§ Identity

Operator
Country
UK
Launch date
2020-03-21
Launch site
TYMSC
Launch vehicle
Mass (kg)
RCS (m²)

Purposes: comms

External: N2YO · Heavens-Above · Gunter

§ Orbital elements

Epoch: 2026-09-20T02:05:06.112320Z

Period
109.80 min
Inclination
87.8978°
Eccentricity
0.0001807
Mean motion
13.11418076 rev/d
Perigee alt
1,216.3 km
Apogee alt
1,219.1 km
Semi-major
7,595.8 km
B*
-1.0042e-3
RAAN
2.2074°
Arg perigee
103.0997°
Mean anomaly
257.0332°
Rev number
31,505

§ Raw data

ONEWEB-00551 45443U 20020V   26263.08687630 -.00000343  00000+0 -10042-2 0  99912 45443  87.8978   2.2074 0001807 103.0997 257.0332 13.11418076315057

JSON: /api/v1/satellites/45443 · /tle

For live sub-satellite position, see the globe view (requires WebGL).

§ Visibility from observer

Set your observer location to see the next 7 days of passes ≥ 10°. The values pass through the URL so the page stays shareable.

No JS? Fill the form by hand. The geolocation button needs JavaScript.